Terminal Aerodrome Forecast
Issued by NWS Missoula, MT

Home | Current Version | Previous Version | Text Only | Print | Product List | Glossary On
Versions: 1 2 3 4 5 6 7 8 9 10 11 12 13 14
048
FTUS45 KMSO 302117 AAA
TAFBTM
TAF AMD
KBTM 302117Z 3021/3118 33012KT 3SM -SHRASN BKN025 OVC030
     FM310100 33015G20KT 3SM -SHSN SCT015 OVC025
     FM310600 34010KT P6SM VCSH FEW030 OVC050
     FM311400 33008KT P6SM SCT030 OVC050=

USA.gov is the U.S. government's official web portal to all federal, state and local government web resources and services.